| time (UTC) | temp F | wind direction | speed MPH | gust MPH | rain 1hr in | rain 24hr in | rain mn in | humidity % | barometer mb |
| 20260901210515 | 99 | 90 | 4.0 | 8.0 | 0.00 | 0.00 | 0.00 | 41 | 1014.6 |
| 20260901210015 | 98 | 68 | 4.0 | 10.0 | 0.00 | 0.00 | 0.00 | 42 | 1014.7 |
| 20260901205515 | 98 | 90 | 6.0 | 12.0 | 0.00 | 0.00 | 0.00 | 42 | 1014.8 |
| 20260901205015 | 98 | 90 | 5.0 | 11.0 | 0.00 | 0.00 | 0.00 | 41 | 1014.9 |
| 20260901204515 | 99 | 90 | 5.0 | 12.0 | 0.00 | 0.00 | 0.00 | 40 | 1014.9 |
| 20260901204015 | 98 | 68 | 3.0 | 7.0 | 0.00 | 0.00 | 0.00 | 42 | 1014.9 |
| 20260901203515 | 98 | 45 | 5.0 | 10.0 | 0.00 | 0.00 | 0.00 | 41 | 1014.9 |
| 20260901203015 | 98 | 45 | 4.0 | 10.0 | 0.00 | 0.00 | 0.00 | 42 | 1015.0 |
| 20260901202515 | 99 | 90 | 6.0 | 11.0 | 0.00 | 0.00 | 0.00 | 40 | 1015.1 |
| 20260901202015 | 98 | 23 | 5.0 | 9.0 | 0.00 | 0.00 | 0.00 | 43 | 1015.2 |
| 20260901201515 | 96 | 23 | 4.0 | 7.0 | 0.00 | 0.00 | 0.00 | 44 | 1015.1 |
| 20260901201015 | 97 | 45 | 4.0 | 9.0 | 0.00 | 0.00 | 0.00 | 43 | 1015.3 |
| 20260901200515 | 99 | 23 | 6.0 | 11.0 | 0.00 | 0.00 | 0.00 | 41 | 1015.4 |
| 20260901200015 | 100 | 45 | 7.0 | 12.0 | 0.00 | 0.00 | 0.00 | 41 | 1015.4 |
| 20260901195515 | 101 | 90 | 5.0 | 14.0 | 0.00 | 0.00 | 0.00 | 40 | 1015.6 |
| 20260901195035 | 100 | 90 | 5.0 | 10.0 | 0.00 | 0.00 | 0.00 | 41 | 1015.7 |
| 20260901194515 | 99 | 68 | 4.0 | 13.0 | 0.00 | 0.00 | 0.00 | 41 | 1015.7 |
| 20260901194015 | 99 | 90 | 2.0 | 6.0 | 0.00 | 0.00 | 0.00 | 40 | 1015.7 |
| 20260901193515 | 98 | 90 | 5.0 | 11.0 | 0.00 | 0.00 | 0.00 | 41 | 1015.8 |
| 20260901193035 | 97 | 90 | 5.0 | 10.0 | 0.00 | 0.00 | 0.00 | 42 | 1015.9 |
| 20260901192515 | 98 | 45 | 3.0 | 9.0 | 0.00 | 0.00 | 0.00 | 42 | 1016.0 |
| 20260901192015 | 100 | 90 | 5.0 | 10.0 | 0.00 | 0.00 | 0.00 | 41 | 1016.1 |
| 20260901191517 | 98 | 0 | 3.0 | 8.0 | 0.00 | 0.00 | 0.00 | 42 | 1016.1 |
| 20260901191015 | 100 | 90 | 4.0 | 10.0 | 0.00 | 0.00 | 0.00 | 41 | 1016.3 |
| 20260901190519 | 100 | 135 | 4.0 | 10.0 | 0.00 | 0.00 | 0.00 | 41 | 1016.3 |
| 20260901190017 | 99 | 68 | 3.0 | 9.0 | 0.00 | 0.00 | 0.00 | 43 | 1016.4 |
| 20260901185517 | 98 | 68 | 3.0 | 7.0 | 0.00 | 0.00 | 0.00 | 43 | 1016.4 |
| 20260901185017 | 97 | 45 | 3.0 | 9.0 | 0.00 | 0.00 | 0.00 | 43 | 1016.5 |
| 20260901184517 | 98 | 68 | 5.0 | 11.0 | 0.00 | 0.00 | 0.00 | 42 | 1016.6 |
| 20260901184017 | 97 | 45 | 5.0 | 11.0 | 0.00 | 0.00 | 0.00 | 45 | 1016.7 |
| 20260901183557 | 97 | 45 | 4.0 | 8.0 | 0.00 | 0.00 | 0.00 | 46 | 1016.7 |
| 20260901183017 | 95 | 90 | 3.0 | 6.0 | 0.00 | 0.00 | 0.00 | 47 | 1016.8 |
| 20260901182517 | 95 | 90 | 3.0 | 10.0 | 0.00 | 0.00 | 0.00 | 45 | 1016.9 |
| 20260901182017 | 98 | 90 | 4.0 | 13.0 | 0.00 | 0.00 | 0.00 | 44 | 1017.2 |
| 20260901181517 | 99 | 90 | 2.0 | 5.0 | 0.00 | 0.00 | 0.00 | 44 | 1017.2 |
| 20260901181037 | 100 | 90 | 4.0 | 12.0 | 0.00 | 0.00 | 0.00 | 42 | 1017.2 |
| 20260901180517 | 99 | 90 | 6.0 | 11.0 | 0.00 | 0.00 | 0.00 | 44 | 1017.4 |
| 20260901180017 | 98 | 90 | 3.0 | 9.0 | 0.00 | 0.00 | 0.00 | 44 | 1017.4 |
| 20260901175517 | 97 | 90 | 6.0 | 11.0 | 0.00 | 0.00 | 0.00 | 45 | 1017.4 |
| 20260901175017 | 97 | 113 | 3.0 | 6.0 | 0.00 | 0.00 | 0.00 | 46 | 1017.5 |
| 20260901174517 | 97 | 135 | 2.0 | 8.0 | 0.00 | 0.00 | 0.00 | 47 | 1017.6 |
| 20260901174018 | 97 | 135 | 4.0 | 8.0 | 0.00 | 0.00 | 0.00 | 46 | 1017.6 |
| 20260901173517 | 96 | 113 | 2.0 | 5.0 | 0.00 | 0.00 | 0.00 | 48 | 1017.7 |
| 20260901173017 | 96 | 90 | 4.0 | 10.0 | 0.00 | 0.00 | 0.00 | 47 | 1017.8 |
| 20260901172517 | 97 | 90 | 4.0 | 12.0 | 0.00 | 0.00 | 0.00 | 46 | 1017.9 |
| 20260901172017 | 96 | 90 | 4.0 | 11.0 | 0.00 | 0.00 | 0.00 | 46 | 1017.9 |
| 20260901171517 | 96 | 90 | 5.0 | 9.0 | 0.00 | 0.00 | 0.00 | 47 | 1018.0 |
| 20260901171017 | 95 | 23 | 3.0 | 8.0 | 0.00 | 0.00 | 0.00 | 49 | 1018.0 |
| 20260901170516 | 95 | 113 | 3.0 | 7.0 | 0.00 | 0.00 | 0.00 | 47 | 1018.1 |
| 20260901170016 | 96 | 90 | 6.0 | 14.0 | 0.00 | 0.00 | 0.00 | 47 | 1018.2 |
| 20260901165516 | 95 | 158 | 3.0 | 10.0 | 0.00 | 0.00 | 0.00 | 48 | 1018.1 |
| 20260901165017 | 95 | 135 | 2.0 | 7.0 | 0.00 | 0.00 | 0.00 | 48 | 1018.2 |
| 20260901164537 | 95 | 135 | 4.0 | 10.0 | 0.00 | 0.00 | 0.00 | 49 | 1018.3 |
| 20260901164016 | 95 | 113 | 4.0 | 7.0 | 0.00 | 0.00 | 0.00 | 48 | 1018.2 |
| 20260901163536 | 95 | 135 | 4.0 | 8.0 | 0.00 | 0.00 | 0.00 | 49 | 1018.3 |
| 20260901163037 | 94 | 135 | 3.0 | 9.0 | 0.00 | 0.00 | 0.00 | 50 | 1018.4 |
| 20260901162536 | 94 | 135 | 3.0 | 6.0 | 0.00 | 0.00 | 0.00 | 51 | 1018.4 |
| 20260901162016 | 93 | 225 | 2.0 | 7.0 | 0.00 | 0.00 | 0.00 | 52 | 1018.4 |
| 20260901161517 | 93 | 225 | 2.0 | 5.0 | 0.00 | 0.00 | 0.00 | 54 | 1018.4 |
| 20260901161016 | 93 | 225 | 3.0 | 6.0 | 0.00 | 0.00 | 0.00 | 54 | 1018.6 |
| 20260901160537 | 93 | 180 | 2.0 | 4.0 | 0.00 | 0.00 | 0.00 | 53 | 1018.6 |
| 20260901160038 | 92 | 203 | 2.0 | 7.0 | 0.00 | 0.00 | 0.00 | 54 | 1018.6 |
| 20260901155516 | 92 | 203 | 2.0 | 4.0 | 0.00 | 0.00 | 0.00 | 55 | 1018.6 |
| 20260901155016 | 91 | 203 | 1.0 | 7.0 | 0.00 | 0.00 | 0.00 | 55 | 1018.5 |
| 20260901154516 | 91 | 203 | 1.0 | 5.0 | 0.00 | 0.00 | 0.00 | 55 | 1018.5 |
| 20260901154016 | 90 | 248 | 1.0 | 4.0 | 0.00 | 0.00 | 0.00 | 57 | 1018.4 |
| 20260901153637 | 90 | 248 | 1.0 | 3.0 | 0.00 | 0.00 | 0.00 | 60 | 1018.4 |
| 20260901153017 | 90 | 248 | 2.0 | 4.0 | 0.00 | 0.00 | 0.00 | 59 | 1018.2 |
| 20260901152516 | 89 | 248 | 1.0 | 2.0 | 0.00 | 0.00 | 0.00 | 60 | 1018.3 |
| 20260901152017 | 89 | 248 | 1.0 | 4.0 | 0.00 | 0.00 | 0.00 | 60 | 1018.3 |
| 20260901151516 | 88 | 248 | 3.0 | 7.0 | 0.00 | 0.00 | 0.00 | 62 | 1018.3 |
| 20260901151036 | 87 | 338 | 1.0 | 4.0 | 0.00 | 0.00 | 0.00 | 66 | 1018.3 |
| 20260901150516 | 87 | 315 | 2.0 | 4.0 | 0.00 | 0.00 | 0.00 | 65 | 1018.4 |
| 20260901150016 | 87 | 270 | 3.0 | 5.0 | 0.00 | 0.00 | 0.00 | 66 | 1018.6 |
| 20260901145516 | 86 | 225 | 2.0 | 5.0 | 0.00 | 0.00 | 0.00 | 67 | 1018.6 |
| 20260901145016 | 86 | 225 | 2.0 | 6.0 | 0.00 | 0.00 | 0.00 | 67 | 1018.6 |
| 20260901144516 | 85 | 225 | 1.0 | 5.0 | 0.00 | 0.00 | 0.00 | 67 | 1018.5 |
| 20260901144016 | 85 | 225 | 1.0 | 3.0 | 0.00 | 0.00 | 0.00 | 71 | 1018.4 |
| 20260901143516 | 85 | 225 | 1.0 | 5.0 | 0.00 | 0.00 | 0.00 | 72 | 1018.5 |
| 20260901143017 | 84 | 248 | 2.0 | 7.0 | 0.00 | 0.00 | 0.00 | 73 | 1018.5 |
| 20260901142516 | 84 | 0.0 | 3.0 | 0.00 | 0.00 | 0.00 | 75 | 1018.6 | |
| 20260901142036 | 83 | 0.0 | 3.0 | 0.00 | 0.00 | 0.00 | 75 | 1018.5 | |
| 20260901141516 | 83 | 0.0 | 0.0 | 0.00 | 0.00 | 0.00 | 76 | 1018.5 | |
| 20260901141016 | 82 | 248 | 1.0 | 3.0 | 0.00 | 0.00 | 0.00 | 77 | 1018.4 |
| 20260901140537 | 82 | 0.0 | 0.0 | 0.00 | 0.00 | 0.00 | 79 | 1018.6 | |
| 20260901140016 | 81 | 0.0 | 2.0 | 0.00 | 0.00 | 0.00 | 80 | 1018.5 | |
| 20260901135516 | 81 | 248 | 1.0 | 3.0 | 0.00 | 0.00 | 0.00 | 80 | 1018.5 |
| 20260901135016 | 80 | 248 | 1.0 | 3.0 | 0.00 | 0.00 | 0.00 | 81 | 1018.4 |
| 20260901134516 | 80 | 0.0 | 3.0 | 0.00 | 0.00 | 0.00 | 81 | 1018.4 | |
| 20260901134016 | 79 | 0.0 | 0.0 | 0.00 | 0.00 | 0.00 | 83 | 1018.4 | |
| 20260901133516 | 79 | 0.0 | 0.0 | 0.00 | 0.00 | 0.00 | 83 | 1018.3 | |
| 20260901133016 | 78 | 0.0 | 0.0 | 0.00 | 0.00 | 0.00 | 85 | 1018.3 | |
| 20260901132517 | 78 | 0.0 | 0.0 | 0.00 | 0.00 | 0.00 | 86 | 1018.2 | |
| 20260901132016 | 77 | 0.0 | 1.0 | 0.00 | 0.00 | 0.00 | 87 | 1018.2 | |
| 20260901131516 | 77 | 0.0 | 1.0 | 0.00 | 0.00 | 0.00 | 87 | 1018.2 | |
| 20260901131036 | 77 | 0.0 | 1.0 | 0.00 | 0.00 | 0.00 | 87 | 1018.1 | |
| 20260901130517 | 77 | 0.0 | 0.0 | 0.00 | 0.00 | 0.00 | 87 | 1018.0 | |
| 20260901130016 | 77 | 0.0 | 0.0 | 0.00 | 0.00 | 0.00 | 87 | 1017.9 | |
| 20260901125517 | 76 | 0.0 | 0.0 | 0.00 | 0.00 | 0.00 | 87 | 1017.9 | |
| 20260901125016 | 76 | 0.0 | 0.0 | 0.00 | 0.00 | 0.00 | 87 | 1017.8 | |
| 20260901124516 | 76 | 0.0 | 0.0 | 0.00 | 0.00 | 0.00 | 86 | 1017.8 | |
| 20260901124016 | 76 | 0.0 | 0.0 | 0.00 | 0.00 | 0.00 | 86 | 1017.9 | |
| 20260901123516 | 77 | 0.0 | 0.0 | 0.00 | 0.00 | 0.00 | 86 | 1017.9 | |
| 20260901123016 | 77 | 0.0 | 0.0 | 0.00 | 0.00 | 0.00 | 85 | 1017.8 | |
| 20260901122516 | 77 | 0.0 | 0.0 | 0.00 | 0.00 | 0.00 | 85 | 1017.7 | |
| 20260901122036 | 77 | 0.0 | 0.0 | 0.00 | 0.00 | 0.00 | 84 | 1017.5 | |
| 20260901121516 | 77 | 0.0 | 0.0 | 0.00 | 0.00 | 0.00 | 84 | 1017.5 | |
| 20260901121016 | 77 | 0.0 | 0.0 | 0.00 | 0.00 | 0.00 | 84 | 1017.5 | |
| 20260901120516 | 77 | 0.0 | 0.0 | 0.00 | 0.00 | 0.00 | 84 | 1017.4 | |
| 20260901120016 | 77 | 0.0 | 0.0 | 0.00 | 0.00 | 0.00 | 83 | 1017.4 | |
| 20260901115516 | 77 | 0.0 | 0.0 | 0.00 | 0.00 | 0.00 | 83 | 1017.4 | |
| 20260901115016 | 78 | 0.0 | 0.0 | 0.00 | 0.00 | 0.00 | 83 | 1017.4 | |
| 20260901114516 | 78 | 0.0 | 0.0 | 0.00 | 0.00 | 0.00 | 83 | 1017.5 | |
| 20260901114016 | 78 | 0.0 | 0.0 | 0.00 | 0.00 | 0.00 | 82 | 1017.4 | |
| 20260901113516 | 78 | 0.0 | 0.0 | 0.00 | 0.00 | 0.00 | 82 | 1017.4 | |
| 20260901113016 | 78 | 0.0 | 0.0 | 0.00 | 0.00 | 0.00 | 82 | 1017.5 | |
| 20260901112516 | 78 | 0.0 | 0.0 | 0.00 | 0.00 | 0.00 | 82 | 1017.4 | |
| 20260901112016 | 78 | 0.0 | 4.0 | 0.00 | 0.00 | 0.00 | 82 | 1017.4 | |
| 20260901111516 | 78 | 0.0 | 2.0 | 0.00 | 0.00 | 0.00 | 81 | 1017.4 | |
| 20260901111056 | 78 | 0.0 | 2.0 | 0.00 | 0.00 | 0.00 | 81 | 1017.4 | |
| 20260901110516 | 78 | 0.0 | 2.0 | 0.00 | 0.00 | 0.00 | 81 | 1017.4 | |
| 20260901110016 | 79 | 225 | 1.0 | 3.0 | 0.00 | 0.00 | 0.00 | 81 | 1017.3 |
| 20260901105516 | 79 | 225 | 1.0 | 4.0 | 0.00 | 0.00 | 0.00 | 81 | 1017.4 |
| 20260901105016 | 79 | 225 | 1.0 | 4.0 | 0.00 | 0.00 | 0.00 | 81 | 1017.2 |
| 20260901104516 | 79 | 225 | 1.0 | 5.0 | 0.00 | 0.00 | 0.00 | 81 | 1017.2 |
| 20260901104016 | 79 | 225 | 1.0 | 4.0 | 0.00 | 0.00 | 0.00 | 81 | 1017.2 |
| 20260901103536 | 79 | 225 | 1.0 | 5.0 | 0.00 | 0.00 | 0.00 | 81 | 1017.3 |
| 20260901103016 | 79 | 0.0 | 1.0 | 0.00 | 0.00 | 0.00 | 81 | 1017.2 | |
| 20260901102516 | 79 | 0.0 | 4.0 | 0.00 | 0.00 | 0.00 | 81 | 1017.2 | |
| 20260901102016 | 79 | 225 | 1.0 | 4.0 | 0.00 | 0.00 | 0.00 | 81 | 1017.1 |
| 20260901101516 | 79 | 225 | 1.0 | 5.0 | 0.00 | 0.00 | 0.00 | 81 | 1017.2 |
| 20260901101016 | 79 | 225 | 1.0 | 4.0 | 0.00 | 0.00 | 0.00 | 80 | 1017.2 |
| 20260901100516 | 79 | 225 | 2.0 | 4.0 | 0.00 | 0.00 | 0.00 | 80 | 1017.2 |
| 20260901100036 | 79 | 225 | 2.0 | 5.0 | 0.00 | 0.00 | 0.00 | 80 | 1017.1 |
| 20260901095516 | 79 | 225 | 1.0 | 5.0 | 0.00 | 0.00 | 0.00 | 80 | 1017.1 |
| 20260901095037 | 79 | 225 | 2.0 | 5.0 | 0.00 | 0.00 | 0.00 | 79 | 1017.2 |
| 20260901094536 | 79 | 225 | 1.0 | 5.0 | 0.00 | 0.00 | 0.00 | 79 | 1017.1 |
| 20260901094016 | 79 | 225 | 1.0 | 6.0 | 0.00 | 0.00 | 0.00 | 79 | 1017.2 |
| 20260901093556 | 79 | 225 | 1.0 | 4.0 | 0.00 | 0.00 | 0.00 | 78 | 1017.2 |
| 20260901093056 | 79 | 225 | 1.0 | 5.0 | 0.00 | 0.00 | 0.00 | 78 | 1017.2 |
| 20260901092516 | 80 | 225 | 1.0 | 6.0 | 0.00 | 0.00 | 0.00 | 77 | 1017.3 |
| 20260901092016 | 80 | 225 | 1.0 | 4.0 | 0.00 | 0.00 | 0.00 | 76 | 1017.4 |
| 20260901091516 | 80 | 0.0 | 4.0 | 0.00 | 0.00 | 0.00 | 76 | 1017.4 | |
| 20260901091015 | 80 | 225 | 1.0 | 4.0 | 0.00 | 0.00 | 0.00 | 75 | 1017.4 |
| 20260901090516 | 80 | 0.0 | 2.0 | 0.00 | 0.00 | 0.00 | 74 | 1017.3 | |
| 20260901090056 | 80 | 0.0 | 2.0 | 0.00 | 0.00 | 0.00 | 74 | 1017.2 | |
| 20260901085536 | 80 | 0.0 | 2.0 | 0.00 | 0.00 | 0.00 | 74 | 1017.2 | |
| 20260901085015 | 80 | 0.0 | 4.0 | 0.00 | 0.00 | 0.00 | 74 | 1017.2 | |
| 20260901084516 | 81 | 0.0 | 5.0 | 0.00 | 0.00 | 0.00 | 74 | 1017.2 | |
| 20260901084016 | 81 | 0.0 | 4.0 | 0.00 | 0.00 | 0.00 | 73 | 1017.2 | |
| 20260901083536 | 81 | 225 | 1.0 | 2.0 | 0.00 | 0.00 | 0.00 | 73 | 1017.3 |
| 20260901083016 | 81 | 225 | 1.0 | 2.0 | 0.00 | 0.00 | 0.00 | 73 | 1017.2 |
| 20260901082515 | 81 | 225 | 2.0 | 8.0 | 0.00 | 0.00 | 0.00 | 73 | 1017.2 |
| 20260901082016 | 81 | 203 | 2.0 | 8.0 | 0.00 | 0.00 | 0.00 | 73 | 1017.1 |
| 20260901081516 | 81 | 203 | 1.0 | 3.0 | 0.00 | 0.00 | 0.00 | 72 | 1017.1 |
| 20260901081016 | 81 | 203 | 1.0 | 4.0 | 0.00 | 0.00 | 0.00 | 72 | 1017.1 |
| 20260901080516 | 81 | 180 | 1.0 | 5.0 | 0.00 | 0.00 | 0.00 | 71 | 1017.2 |
| 20260901080036 | 82 | 203 | 2.0 | 5.0 | 0.00 | 0.00 | 0.00 | 71 | 1017.4 |
| 20260901075535 | 82 | 180 | 2.0 | 7.0 | 0.00 | 0.00 | 0.00 | 70 | 1017.3 |
| 20260901075015 | 82 | 180 | 2.0 | 4.0 | 0.00 | 0.00 | 0.00 | 70 | 1017.4 |
| 20260901074516 | 82 | 180 | 2.0 | 4.0 | 0.00 | 0.00 | 0.00 | 70 | 1017.3 |
| 20260901074015 | 82 | 180 | 2.0 | 5.0 | 0.00 | 0.00 | 0.00 | 69 | 1017.5 |
| 20260901073518 | 82 | 180 | 2.0 | 7.0 | 0.00 | 0.00 | 0.00 | 69 | 1017.4 |
| 20260901073035 | 82 | 180 | 1.0 | 5.0 | 0.00 | 0.00 | 0.00 | 69 | 1017.4 |
| 20260901072515 | 83 | 180 | 1.0 | 4.0 | 0.00 | 0.00 | 0.00 | 69 | 1017.5 |
| 20260901072015 | 83 | 180 | 2.0 | 5.0 | 0.00 | 0.00 | 0.00 | 69 | 1017.4 |
| 20260901071515 | 83 | 203 | 1.0 | 4.0 | 0.00 | 0.00 | 0.00 | 69 | 1017.6 |
| 20260901071015 | 83 | 225 | 2.0 | 6.0 | 0.00 | 0.00 | 0.00 | 69 | 1017.6 |
| 20260901070536 | 83 | 225 | 2.0 | 6.0 | 0.00 | 0.00 | 0.00 | 68 | 1017.7 |
| 20260901070015 | 83 | 203 | 3.0 | 8.0 | 0.00 | 0.00 | 0.00 | 68 | 1017.6 |
| 20260901065516 | 83 | 180 | 2.0 | 6.0 | 0.00 | 0.00 | 0.00 | 68 | 1017.5 |
| 20260901065015 | 83 | 180 | 3.0 | 8.0 | 0.00 | 0.00 | 0.00 | 67 | 1017.5 |
| 20260901064517 | 83 | 158 | 3.0 | 9.0 | 0.00 | 0.00 | 0.00 | 67 | 1017.5 |
| 20260901064016 | 83 | 180 | 4.0 | 9.0 | 0.00 | 0.00 | 0.00 | 67 | 1017.4 |
| 20260901063535 | 84 | 180 | 4.0 | 9.0 | 0.00 | 0.00 | 0.00 | 67 | 1017.3 |
| 20260901063015 | 84 | 180 | 3.0 | 8.0 | 0.00 | 0.00 | 0.00 | 68 | 1017.1 |
| 20260901062516 | 84 | 180 | 3.0 | 9.0 | 0.00 | 0.00 | 0.00 | 68 | 1017.1 |
| 20260901062015 | 84 | 180 | 2.0 | 8.0 | 0.00 | 0.00 | 0.00 | 67 | 1017.1 |
| 20260901061536 | 84 | 180 | 4.0 | 11.0 | 0.00 | 0.00 | 0.00 | 67 | 1017.1 |
| 20260901061035 | 84 | 180 | 4.0 | 11.0 | 0.00 | 0.00 | 0.00 | 67 | 1017.0 |
| 20260901060515 | 84 | 180 | 4.0 | 11.0 | 0.00 | 0.00 | 0.00 | 66 | 1017.1 |
| 20260901060015 | 84 | 225 | 3.0 | 8.0 | 0.00 | 0.00 | 0.00 | 66 | 1017.0 |
| 20260901055535 | 84 | 203 | 3.0 | 9.0 | 0.00 | 0.00 | 0.00 | 65 | 1017.0 |
| 20260901055015 | 85 | 158 | 3.0 | 12.0 | 0.00 | 0.00 | 0.00 | 65 | 1017.1 |
| 20260901054515 | 85 | 158 | 3.0 | 7.0 | 0.00 | 0.00 | 0.00 | 65 | 1016.9 |
| 20260901054015 | 85 | 180 | 4.0 | 9.0 | 0.00 | 0.00 | 0.00 | 64 | 1016.9 |
| 20260901053515 | 85 | 158 | 4.0 | 10.0 | 0.00 | 0.00 | 0.00 | 64 | 1017.1 |
| 20260901053015 | 85 | 158 | 3.0 | 13.0 | 0.00 | 0.00 | 0.00 | 63 | 1016.9 |
| 20260901052515 | 85 | 203 | 3.0 | 13.0 | 0.00 | 0.00 | 0.00 | 63 | 1016.9 |
| 20260901052015 | 85 | 180 | 3.0 | 8.0 | 0.00 | 0.00 | 0.00 | 63 | 1016.8 |
| 20260901051515 | 85 | 158 | 3.0 | 9.0 | 0.00 | 0.00 | 0.00 | 63 | 1016.8 |
| 20260901051015 | 85 | 180 | 4.0 | 11.0 | 0.00 | 0.00 | 0.00 | 62 | 1016.7 |
| 20260901050515 | 85 | 180 | 4.0 | 10.0 | 0.00 | 0.00 | 0.00 | 62 | 1016.7 |
| 20260901050055 | 85 | 158 | 3.0 | 8.0 | 0.00 | 0.00 | 0.00 | 62 | 1016.7 |
| 20260901045516 | 85 | 158 | 4.0 | 9.0 | 0.00 | 0.00 | 0.00 | 62 | 1016.7 |
| 20260901045016 | 86 | 158 | 5.0 | 12.0 | 0.00 | 0.00 | 0.00 | 62 | 1016.6 |
| 20260901044516 | 86 | 158 | 6.0 | 13.0 | 0.00 | 0.00 | 0.00 | 61 | 1016.7 |
| 20260901044016 | 86 | 180 | 5.0 | 10.0 | 0.00 | 0.00 | 0.00 | 61 | 1016.7 |
| 20260901043516 | 86 | 158 | 4.0 | 11.0 | 0.00 | 0.00 | 0.00 | 61 | 1016.6 |
| 20260901043016 | 86 | 158 | 5.0 | 12.0 | 0.00 | 0.00 | 0.00 | 60 | 1016.6 |
| 20260901042516 | 86 | 158 | 4.0 | 11.0 | 0.00 | 0.00 | 0.00 | 60 | 1016.7 |
| 20260901042036 | 86 | 180 | 4.0 | 11.0 | 0.00 | 0.00 | 0.00 | 60 | 1016.6 |
| 20260901041516 | 86 | 135 | 5.0 | 13.0 | 0.00 | 0.00 | 0.00 | 59 | 1016.5 |
| 20260901041016 | 87 | 135 | 4.0 | 9.0 | 0.00 | 0.00 | 0.00 | 59 | 1016.5 |
| 20260901040536 | 87 | 158 | 3.0 | 9.0 | 0.00 | 0.00 | 0.00 | 59 | 1016.5 |
| 20260901040016 | 87 | 158 | 4.0 | 12.0 | 0.00 | 0.00 | 0.00 | 59 | 1016.6 |
| 20260901035516 | 87 | 135 | 4.0 | 9.0 | 0.00 | 0.00 | 0.00 | 58 | 1016.5 |
| 20260901035016 | 87 | 158 | 6.0 | 17.0 | 0.00 | 0.00 | 0.00 | 58 | 1016.5 |
| 20260901034516 | 87 | 158 | 6.0 | 14.0 | 0.00 | 0.00 | 0.00 | 57 | 1016.4 |
| 20260901034017 | 88 | 158 | 6.0 | 14.0 | 0.00 | 0.00 | 0.00 | 57 | 1016.5 |
| 20260901033516 | 88 | 158 | 5.0 | 15.0 | 0.00 | 0.00 | 0.00 | 56 | 1016.4 |
| 20260901033016 | 88 | 158 | 5.0 | 12.0 | 0.00 | 0.00 | 0.00 | 55 | 1016.5 |
| 20260901032536 | 88 | 158 | 6.0 | 12.0 | 0.00 | 0.00 | 0.00 | 54 | 1016.2 |
| 20260901032016 | 88 | 158 | 6.0 | 17.0 | 0.00 | 0.00 | 0.00 | 53 | 1016.1 |
| 20260901031516 | 88 | 158 | 5.0 | 11.0 | 0.00 | 0.00 | 0.00 | 52 | 1016.1 |
| 20260901031016 | 89 | 135 | 6.0 | 14.0 | 0.00 | 0.00 | 0.00 | 51 | 1016.0 |
| 20260901030516 | 89 | 135 | 5.0 | 10.0 | 0.00 | 0.00 | 0.00 | 50 | 1016.0 |
| 20260901030016 | 89 | 135 | 4.0 | 11.0 | 0.00 | 0.00 | 0.00 | 49 | 1015.9 |
| 20260901025516 | 88 | 135 | 3.0 | 9.0 | 0.00 | 0.00 | 0.00 | 48 | 1015.7 |
| 20260901025036 | 88 | 135 | 4.0 | 10.0 | 0.00 | 0.00 | 0.00 | 47 | 1015.7 |
| 20260901024515 | 88 | 135 | 3.0 | 6.0 | 0.00 | 0.00 | 0.00 | 46 | 1015.7 |
| 20260901024036 | 88 | 135 | 3.0 | 7.0 | 0.00 | 0.00 | 0.00 | 46 | 1015.7 |
| 20260901023516 | 88 | 135 | 3.0 | 8.0 | 0.00 | 0.00 | 0.00 | 46 | 1015.4 |
| 20260901023016 | 88 | 135 | 2.0 | 7.0 | 0.00 | 0.00 | 0.00 | 46 | 1015.4 |
| 20260901022515 | 88 | 135 | 3.0 | 7.0 | 0.00 | 0.00 | 0.00 | 46 | 1015.3 |
| 20260901022015 | 88 | 135 | 2.0 | 5.0 | 0.00 | 0.00 | 0.00 | 46 | 1015.3 |
| 20260901021556 | 88 | 135 | 3.0 | 5.0 | 0.00 | 0.00 | 0.00 | 46 | 1015.2 |
| 20260901021016 | 89 | 135 | 2.0 | 5.0 | 0.00 | 0.00 | 0.00 | 46 | 1015.3 |
| 20260901020515 | 89 | 135 | 1.0 | 4.0 | 0.00 | 0.00 | 0.00 | 46 | 1015.0 |
| 20260901020016 | 88 | 135 | 2.0 | 4.0 | 0.00 | 0.00 | 0.00 | 46 | 1015.0 |
| 20260901015516 | 89 | 113 | 2.0 | 3.0 | 0.00 | 0.00 | 0.00 | 46 | 1014.9 |
| 20260901015016 | 89 | 113 | 1.0 | 3.0 | 0.00 | 0.00 | 0.00 | 46 | 1014.7 |
| 20260901014515 | 89 | 113 | 1.0 | 3.0 | 0.00 | 0.00 | 0.00 | 46 | 1014.7 |
| 20260901014015 | 89 | 113 | 1.0 | 3.0 | 0.00 | 0.00 | 0.00 | 45 | 1014.7 |
| 20260901013515 | 90 | 113 | 1.0 | 3.0 | 0.00 | 0.00 | 0.00 | 45 | 1014.8 |
| 20260901013036 | 90 | 113 | 2.0 | 3.0 | 0.00 | 0.00 | 0.00 | 44 | 1014.8 |
| 20260901012515 | 91 | 113 | 1.0 | 3.0 | 0.00 | 0.00 | 0.00 | 44 | 1014.7 |
| 20260901012035 | 91 | 113 | 1.0 | 3.0 | 0.00 | 0.00 | 0.00 | 43 | 1014.5 |
| 20260901011515 | 91 | 113 | 2.0 | 4.0 | 0.00 | 0.00 | 0.00 | 42 | 1014.5 |
| 20260901011015 | 92 | 113 | 2.0 | 3.0 | 0.00 | 0.00 | 0.00 | 42 | 1014.5 |
| 20260901010515 | 92 | 135 | 2.0 | 5.0 | 0.00 | 0.00 | 0.00 | 42 | 1014.4 |
| 20260901010016 | 92 | 135 | 2.0 | 5.0 | 0.00 | 0.00 | 0.00 | 41 | 1014.5 |
| 20260901005036 | 93 | 135 | 3.0 | 5.0 | 0.00 | 0.00 | 0.00 | 40 | 1014.6 |
| 20260901004516 | 93 | 90 | 3.0 | 7.0 | 0.00 | 0.00 | 0.00 | 40 | 1014.5 |
| 20260901004035 | 94 | 113 | 3.0 | 7.0 | 0.00 | 0.00 | 0.00 | 39 | 1014.5 |
| 20260901003517 | 94 | 135 | 3.0 | 8.0 | 0.00 | 0.00 | 0.00 | 40 | 1014.5 |
| 20260901003015 | 94 | 135 | 2.0 | 5.0 | 0.00 | 0.00 | 0.00 | 40 | 1014.4 |
| 20260901002515 | 94 | 135 | 3.0 | 8.0 | 0.00 | 0.00 | 0.00 | 39 | 1014.4 |
| 20260901002015 | 95 | 135 | 3.0 | 9.0 | 0.00 | 0.00 | 0.00 | 40 | 1014.5 |
| 20260901001516 | 95 | 135 | 4.0 | 11.0 | 0.00 | 0.00 | 0.00 | 40 | 1014.4 |
| 20260901001055 | 95 | 135 | 4.0 | 10.0 | 0.00 | 0.00 | 0.00 | 39 | 1014.4 |
| 20260901000516 | 95 | 135 | 4.0 | 11.0 | 0.00 | 0.00 | 0.00 | 39 | 1014.4 |
| 20260901000015 | 95 | 135 | 2.0 | 7.0 | 0.00 | 0.00 | 0.00 | 38 | 1014.4 |
| 20260831235515 | 95 | 135 | 3.0 | 5.0 | 0.00 | 0.00 | 0.00 | 38 | 1014.4 |
| 20260831235036 | 95 | 113 | 4.0 | 10.0 | 0.00 | 0.00 | 0.00 | 38 | 1014.4 |
| 20260831234515 | 96 | 90 | 3.0 | 7.0 | 0.00 | 0.00 | 0.00 | 38 | 1014.4 |
| 20260831234015 | 96 | 90 | 4.0 | 7.0 | 0.00 | 0.00 | 0.00 | 37 | 1014.5 |
| 20260831233515 | 96 | 113 | 3.0 | 5.0 | 0.00 | 0.00 | 0.00 | 38 | 1014.5 |
| 20260831233015 | 96 | 113 | 3.0 | 9.0 | 0.00 | 0.00 | 0.00 | 37 | 1014.5 |
| 20260831232515 | 97 | 135 | 5.0 | 9.0 | 0.00 | 0.00 | 0.00 | 37 | 1014.6 |
| 20260831232015 | 97 | 90 | 7.0 | 15.0 | 0.00 | 0.00 | 0.00 | 37 | 1014.6 |
| 20260831231515 | 97 | 90 | 5.0 | 12.0 | 0.00 | 0.00 | 0.00 | 37 | 1014.7 |
| 20260831231015 | 97 | 135 | 6.0 | 13.0 | 0.00 | 0.00 | 0.00 | 38 | 1014.6 |
| 20260831230515 | 97 | 90 | 5.0 | 9.0 | 0.00 | 0.00 | 0.00 | 38 | 1014.7 |
| 20260831230015 | 97 | 135 | 3.0 | 9.0 | 0.00 | 0.00 | 0.00 | 38 | 1014.6 |
| 20260831225515 | 97 | 135 | 3.0 | 9.0 | 0.00 | 0.00 | 0.00 | 37 | 1014.6 |
| 20260831225015 | 97 | 90 | 4.0 | 11.0 | 0.00 | 0.00 | 0.00 | 36 | 1014.7 |
| 20260831224515 | 97 | 90 | 4.0 | 8.0 | 0.00 | 0.00 | 0.00 | 35 | 1014.6 |
| 20260831224015 | 97 | 135 | 3.0 | 8.0 | 0.00 | 0.00 | 0.00 | 35 | 1014.7 |
| 20260831223515 | 98 | 90 | 3.0 | 9.0 | 0.00 | 0.00 | 0.00 | 33 | 1014.7 |
| 20260831223015 | 98 | 113 | 4.0 | 11.0 | 0.00 | 0.00 | 0.00 | 35 | 1014.8 |
| 20260831222515 | 98 | 180 | 4.0 | 10.0 | 0.00 | 0.00 | 0.00 | 37 | 1014.8 |
| 20260831222035 | 98 | 113 | 3.0 | 7.0 | 0.00 | 0.00 | 0.00 | 37 | 1014.9 |
| 20260831221515 | 99 | 90 | 4.0 | 9.0 | 0.00 | 0.00 | 0.00 | 36 | 1014.9 |
| 20260831221015 | 99 | 90 | 5.0 | 11.0 | 0.00 | 0.00 | 0.00 | 35 | 1014.9 |
| 20260831220515 | 98 | 90 | 3.0 | 8.0 | 0.00 | 0.00 | 0.00 | 36 | 1014.9 |
| 20260831220015 | 98 | 158 | 4.0 | 11.0 | 0.00 | 0.00 | 0.00 | 38 | 1014.9 |
| 20260831215515 | 97 | 158 | 3.0 | 9.0 | 0.00 | 0.00 | 0.00 | 39 | 1014.9 |
| 20260831215015 | 97 | 158 | 2.0 | 6.0 | 0.00 | 0.00 | 0.00 | 40 | 1015.1 |
| 20260831214515 | 97 | 158 | 2.0 | 6.0 | 0.00 | 0.00 | 0.00 | 40 | 1015.2 |
| 20260831214015 | 95 | 158 | 2.0 | 7.0 | 0.00 | 0.00 | 0.00 | 41 | 1015.2 |
| 20260831213515 | 95 | 158 | 1.0 | 7.0 | 0.00 | 0.00 | 0.00 | 40 | 1015.2 |
| 20260831213016 | 97 | 135 | 3.0 | 10.0 | 0.00 | 0.00 | 0.00 | 39 | 1015.3 |
| 20260831212515 | 98 | 135 | 5.0 | 11.0 | 0.00 | 0.00 | 0.00 | 38 | 1015.4 |
| 20260831212015 | 98 | 158 | 5.0 | 10.0 | 0.00 | 0.00 | 0.00 | 39 | 1015.5 |
| 20260831211515 | 98 | 113 | 2.0 | 4.0 | 0.00 | 0.00 | 0.00 | 42 | 1015.5 |
| 20260831211015 | 98 | 113 | 2.0 | 5.0 | 0.00 | 0.00 | 0.00 | 41 | 1015.6 |
| 20260831210536 | 97 | 158 | 4.0 | 9.0 | 0.00 | 0.00 | 0.00 | 41 | 1015.5 |